Regional Weather Roundup
Issued by NWS

Home | Current Version | Previous Version | Graphics & Text | Print | Product List | Glossary Off
Versions: 1 2 3 4 5 6 7 8 9 10 11 12 13 14 15 16 17 18 19 20 21 22 23 24 25 26 27 28 29 30 31 32 33 34 35 36 37 38 39 40 41 42 43 44 45 46 47 48 49 50

000
ASUS43 KMPX 040301
RWRMN
WEATHER ROUNDUP FOR MINNESOTA
NATIONAL WEATHER SERVICE TWIN CITIES/CHANHASSEN MN
1000 PM CDT MON AUG 03 2015


NOTE: "FAIR" INDICATES FEW OR NO CLOUDS BELOW 12,000 FEET WITH NO
SIGNIFICANT WEATHER AND/OR OBSTRUCTIONS TO VISIBILITY. N/A MEANS
CURRENT SKY AND/OR WEATHER CONDITIONS ARE NOT AVAILABLE.

MNZ060>063-068>070-040400-
   Twin Cities Metro

CITY           SKY/WX    TMP DP  RH WIND       PRES   REMARKS
TWIN CITIES    PTCLDY    71  53  52 W7        29.92R
ST PAUL        MOCLDY    71  51  49 NW9       29.91R
CRYSTAL        CLEAR     71  53  52 W6        29.91R
BLAINE         CLEAR     68  54  60 W5        29.91R
LAKEVILLE      CLEAR     64  54  68 W5        29.93R
EDEN PRAIRIE   CLEAR     70  53  54 W7        29.92R
SOUTH ST PAUL  MOCLDY    73  52  47 W5        29.91R
LAKE ELMO      CLOUDY    64  54  68 W3        29.92R
$$
MNZ001>005-007-008-013>017-022>024-027-028-040400-
   Northwest Minnesota

CITY           SKY/WX    TMP DP  RH WIND       PRES   REMARKS
BEMIDJI        CLEAR     60  46  61 W5        29.93R
HALLOCK        CLEAR     61  52  72 N3        29.91R
ROSEAU         CLEAR     57  54  88 CALM      29.91S
WARROAD        CLEAR     61  55  82 W3        29.91S
THIEF RVR FALL CLEAR     59  52  77 CALM      29.92S
CROOKSTON      CLEAR     61  54  77 CALM      29.92S
FOSSTON        CLEAR     54  46  76 CALM      29.94S
DETROIT LAKES  CLEAR     63  52  67 CALM      29.96R
MOORHEAD       CLEAR     64  52  63 CALM      29.94R
PARK RAPIDS    CLEAR     60  50  69 NW6       29.94R
MAHNOMEN       FAIR      60  54  79 CALM      29.93S
$$
MNZ006-009>011-018-025>026-040400-
   North Central Minnesota

CITY           SKY/WX    TMP DP  RH WIND       PRES   REMARKS
BAUDETTE       CLEAR     58  51  78 W5        29.89S
FLAG ISLAND    PTCLDY    64  52  63 N14       29.88S
INTL FALLS     PTCLDY    53  51  93 CALM      29.88R
WASKISH        PTCLDY    64  54  68 NW3       29.90S
BIG FORK       PTCLDY    54  52  94 CALM      29.91R
LONGVILLE      CLOUDY    59  54  82 CALM      29.93R
GRAND RAPIDS   CLEAR     54  48  82 CALM      29.92R
CRANE LAKE     CLOUDY    59  54  82 W3        29.89R
ORR            MOCLDY    55  52  88 CALM      29.87S
COOK           PTCLDY    55  54  94 W3        29.90S
WALKER         FAIR      57  52  84 CALM      29.92S
$$
MNZ012-019>021-037-040400-
   Northeast Minnesota

CITY           SKY/WX    TMP DP  RH WIND       PRES   REMARKS
DULUTH         MOCLDY    64  51  62 NW8       29.90R
ELY            CLOUDY    55  54  94 W3        29.87S
HIBBING        PTCLDY    53  50  89 CALM      29.90S
EVELETH        PTCLDY    59  50  72 W5        29.91R
DULUTH HARBOR  CLOUDY    66  55  68 NW9       29.88R
TWO HARBORS    CLOUDY    64  55  72 NW6       29.86F
SILVER BAY     CLEAR     59  55  88 W3        29.85S
GRAND MARAIS     N/A     52  47  83 CALM      29.82R
G MARAIS ARPRT PTCLDY    55  50  82 CALM      29.85R
$$
MNZ029>031-032-039>041-046>048-054>057-064-040400-
   West Central Minnesota

CITY           SKY/WX    TMP DP  RH WIND       PRES   REMARKS
FERGUS FALLS   CLEAR     63  54  72 CALM      29.94R
WHEATON        CLEAR     61  52  72 CALM      29.97R
MORRIS         CLEAR     61  54  77 CALM      29.95R
ALEXANDRIA     CLEAR     64  51  62 CALM      29.97R
ELBOW LAKE     FAIR      64  57  79 CALM      29.95R
WADENA         CLEAR     57  48  72 CALM      29.95R
GLENWOOD       CLEAR     61  52  72 NW5       29.97R
APPLETON       CLEAR     63  54  72 CALM      29.95R
BENSON         CLEAR     59  52  77 CALM      29.96R
ORTONVILLE     CLEAR     64  54  68 CALM      29.96R
MADISON        CLEAR     63  54  72 CALM      29.96R
WILLMAR        FAIR      63  55  77 CALM      29.97R
$$
MNZ033>034-036-042>043-049>051-058-059-040400-
   Central Minnesota

CITY           SKY/WX    TMP DP  RH WIND       PRES   REMARKS
ST CLOUD       PTCLDY    63  52  67 NW5       29.93R
SAUK CENTRE    FAIR      61  52  71 CALM      29.96R
PAYNESVILLE    CLEAR     56  51  84 SW3       29.96R
AITKIN         CLEAR     55  50  82 CALM      29.91S
PINE RIVER     CLEAR     57  52  82 CALM      29.97R
BRAINERD       CLEAR     62  51  67 CALM      29.94R
STAPLES        CLEAR     59  52  77 NW3       29.95R
LONG PRAIRIE   FAIR      59  54  82 CALM      29.96R
LITTLE FALLS     N/A     61  50  67 CALM      29.94R
LITCHFIELD     CLEAR     66  54  63 W5        29.96R
BUFFALO        CLEAR     67  53  59 W3        29.94R
$$
MNZ037-044-045-052-053-040400-
   East Central Minnesota

CITY           SKY/WX    TMP DP  RH WIND       PRES   REMARKS
PRINCETON      CLEAR     63  55  77 W5        29.93R
MORA           MOCLDY    59  54  82 CALM      29.94R
CAMBRIDGE      CLEAR     64  54  68 CALM      29.90R
RUSH CITY      CLEAR     58  55  87 CALM      29.91R
MOOSE LAKE     CLEAR     61  52  72 CALM      29.90R
HINCKLEY       FAIR      61  54  77 NW5       29.92R
CLOQUET        CLEAR     61  50  67 W5        29.91R
MCGREGOR       CLEAR     59  52  77 CALM      29.92S
$$
MNZ071>073-080-081-089-090-097-098-040400-
   Southwest Minnesota

CITY           SKY/WX    TMP DP  RH WIND       PRES   REMARKS
MONTEVIDEO     CLEAR     63  48  59 CALM      29.98R
GRANITE FALLS  CLEAR     62  56  79 CALM      29.98R
CANBY          CLEAR     63  57  80 W3        29.98R
MARSHALL       CLEAR     64  54  68 W5        29.98R
REDWOOD FALLS  CLEAR     69  54  58 NW5       29.95R
OLIVIA         CLEAR     63  52  67 NW3       29.95R
PIPESTONE      CLEAR     70  57  64 NE3       29.99R
WINDOM         CLEAR     64  57  77 CALM      29.98R
WORTHINGTON    CLEAR     64  57  77 W3        29.99R
JACKSON        PTCLDY    64  59  82 CALM      29.98R
TRACY          CLEAR     64  59  82 CALM      29.98R
SLAYTON        CLEAR     63  58  84 CALM      30.00R
$$
MNZ065>067-074>077-082>085-091>093-040400-
   South Central Minnesota

CITY           SKY/WX    TMP DP  RH WIND       PRES   REMARKS
MANKATO        CLEAR     68  52  56 NW6       29.94S
NEW ULM        CLEAR     63  54  72 CALM      29.95R
ST JAMES       CLEAR     64  57  77 CALM      29.97R
FAIRMONT       CLEAR     66  54  63 CALM      29.96R
GLENCOE        CLEAR     63  57  81 CALM      29.94R
FARIBAULT      CLEAR     61  55  82 SW3       29.95R
OWATONNA       CLEAR     61  54  77 CALM      29.95R
WASECA         CLEAR     57  55  94 CALM      29.96R
ALBERT LEA     CLEAR     63  55  77 CALM      29.95S
$$
MNZ078>079-086>088-094>096-040400-
   Southeast Minnesota

CITY           SKY/WX    TMP DP  RH WIND       PRES   REMARKS
ROCHESTER      CLEAR     60  53  77 W8        29.96R
RED WING       PTCLDY    63  57  82 CALM      29.90R
STANTON        CLEAR     63  55  75 CALM      29.92R
DODGE CENTER   PTCLDY    61  54  77 W3        29.95R
WINONA         CLEAR     63  55  77 NW3       29.92R
AUSTIN         CLEAR     66  55  68 CALM      29.95R
PRESTON        CLEAR     62  52  70 W7        29.95R
$$
ABBREVIATIONS USED IN REMARKS
   TC - TEMPERATURES IN CELSIUS
  WCI - WIND CHILL INDEX
   HX - HEAT INDEX
  VSB - VISIBILITY
$$


USA.gov is the U.S. government's official web portal to all federal, state and local government web resources and services.